Lid_Strength_Index
8 13 16 14 13 15 15 17 19 18 16 16 15 14 13 12 14 13 14 14 14 13 11 11 10 5 4 3 3 2 2 1 2 2 2 2 2 2 2 2 2 1 1 1
11 13 12 10 11 13 15 17 18 16 14 16 18 16 14 14 14 14 13 14 14 15 12 10 10 10 5 3 3 3 2 2 1 1 2 2 2 1 1 1 2 2 1 2
13 11 9 12 12 14 15 16 16 17 14 15 17 19 17 15 14 14 13 13 14 14 13 12 11 10 10 5 3 3 3 2 2 1 2 3 3 4 2 1 2 2 2 2
11 9 10 12 13 13 16 12 13 15 15 19 18 24 20 18 17 16 14 14 12 12 12 12 12 11 10 7 3 2 3 3 2 2 2 2 2 3 3 2 2 2 2 2
13 12 11 12 12 11 14 12 13 14 16 18 19 21 20 18 18 16 14 14 13 12 12 11 11 9 10 9 6 4 5 6 4 3 2 2 3 2 3 3 3 3 3 2
12 9 9 10 9 10 10 13 14 16 17 21 19 19 22 18 17 15 13 14 13 12 12 11 10 10 10 9 9 8 7 7 8 5 4 4 4 4 5 5 5 3 3 3
13 13 11 10 12 10 11 14 22 22 24 23 19 20 20 16 14 15 13 12 12 11 10 11 11 10 10 9 9 6 7 6 6 5 5 3 4 4 4 4 4 4 4 4
16 18 12 10 11 13 12 14 19 24 23 21 18 20 18 14 12 12 12 12 11 11 10 10 10 9 8 7 7 6 6 7 6 6 7 7 5 4 4 5 5 5 5 5
16 16 11 10 10 10 13 14 13 17 23 22 19 18 15 13 12 11 11 11 12 12 11 11 10 9 8 8 8 8 8 9 8 8 8 8 8 8 8 8 8 8 8 7
12 16 11 10 9 9 11 11 16 17 25 26 20 20 19 15 14 12 12 12 11 11 11 10 9 9 9 9 9 9 9 9 9 9 9 10 10 9 9 9 9 9 8 7
11 13 13 11 13 13 13 14 13 14 18 22 24 21 17 15 14 14 12 11 12 11 11 10 10 10 10 10 10 10 10 10 11 11 12 12 12 12 11 12 11 11 10 9
10 13 16 14 11 9 10 13 12 16 21 20 19 19 14 13 13 13 13 12 12 12 11 11 11 11 12 13 13 13 13 13 13 13 14 14 14 14 14 14 13 13 12 12
10 14 17 16 13 11 13 12 12 12 13 17 19 19 13 13 13 13 12 13 14 13 12 12 13 14 15 16 15 16 15 16 16 16 16 17 17 17 17 16 16 15 15 14
8 13 16 19 15 13 15 13 12 14 17 16 15 16 14 14 13 13 12 14 15 16 16 16 17 17 17 17 18 18 18 17 17 18 18 18 18 17 17 17 16 16 16 16
10 15 14 14 13 13 16 14 13 14 14 16 17 16 14 13 13 13 13 13 15 17 17 18 18 18 19 19 19 19 18 18 17 18 18 18 17 17 17 17 16 16 16 16
9 16 13 14 13 13 17 14 15 15 15 15 15 16 12 11 12 15 16 16 17 17 18 18 18 18 19 19 19 19 19 18 18 19 19 18 18 18 17 17 17 17 17 16
12 15 20 19 13 14 18 15 14 14 14 15 19 15 13 14 14 18 18 18 18 18 19 19 20 20 19 19 19 20 19 18 18 19 19 19 18 18 18 18 17 18 17 17
13 16 14 18 16 20 15 14 12 13 13 12 13 14 14 16 19 19 19 18 19 19 20 20 21 21 20 20 20 19 19 19 19 19 19 19 18 18 18 18 18 18 18 17
9 15 19 18 21 19 15 15 14 14 15 12 12 15 16 17 18 19 19 19 20 20 20 20 20 20 20 20 20 20 21 20 20 20 20 19 19 19 19 19 19 18 17 17
9 10 14 19 20 23 16 15 14 13 18 13 14 16 16 16 17 16 19 18 19 19 19 20 20 21 21 21 20 21 22 22 22 21 20 20 21 20 21 21 20 19 18 18
13 14 15 19 20 20 14 14 12 19 16 16 14 15 15 16 17 19 19 20 20 20 19 20 21 22 23 22 21 22 22 23 22 21 21 21 21 21 20 20 20 19 19 19
14 15 17 19 20 22 15 13 14 13 15 15 16 16 16 18 19 19 20 21 21 22 21 21 22 23 22 22 21 23 23 23 23 22 22 22 22 21 21 21 20 20 20 20
17 15 18 16 16 15 16 15 16 15 15 16 16 16 17 18 20 21 22 22 22 22 21 21 22 23 23 23 23 24 24 24 23 23 23 23 22 22 21 22 22 22 21 22
15 16 15 15 16 16 17 18 17 17 17 16 16 17 18 20 20 22 22 22 23 24 25 24 25 24 25 24 24 25 25 24 26 25 24 23 24 24 23 22 22 23 23 23
15 15 16 16 17 18 19 18 18 18 18 19 19 20 20 19 20 20 21 23 24 24 25 26 25 24 25 26 27 28 26 26 26 25 25 25 25 25 24 24 24 23 22 21
16 15 15 14 14 15 18 20 18 20 20 21 22 23 22 20 20 20 21 21 22 22 22 22 23 23 24 25 26 26 26 26 26 26 26 26 26 26 26 26 26 23 21 20